SPYUO EPKK-LOWI

Flight info

Callsign SPYUO
Flight time N/A
Altitude 28000
Route BABKO5J BABKO DCT VADEX DCT TOVKA DCT BARUG DCT VATET DCT RASTA DCT NANIT NANIT2A
Aircraft TBM9/L-SDFGRWY/S

Departure

Time 2026-05-04 18:33
Airport Kraków John Paul II International Airport (EPKK)

Arrival

Time N/A
Airport Innsbruck Airport (LOWI)
Time Latitude Longitude Altitude Speed Heading
2026-05-04 18:18 50.07683 19.80010 784 ft 0 kts 347°
2026-05-04 18:29 50.07701 19.80004 784 ft 1 kts 351°
2026-05-04 18:30 50.07747 19.80123 784 ft 13 kts 71°
2026-05-04 18:30 50.07772 19.80279 784 ft 11 kts 82°
2026-05-04 18:30 50.07786 19.80330 784 ft 0 kts 42°
2026-05-04 18:31 50.07839 19.80337 784 ft 9 kts 348°
2026-05-04 18:31 50.07843 19.80336 784 ft 0 kts 346°
2026-05-04 18:31 50.07854 19.80331 784 ft 8 kts 346°
2026-05-04 18:32 50.07917 19.80308 784 ft 1 kts 343°
2026-05-04 18:32 50.07931 19.80302 784 ft 9 kts 345°
2026-05-04 18:32 50.08003 19.80140 784 ft 31 kts 258°
2026-05-04 18:32 50.07966 19.79888 783 ft 15 kts 257°
2026-05-04 18:33 50.07909 19.79544 784 ft 64 kts 261°
2026-05-04 18:33 50.07783 19.78543 814 ft 120 kts 259°
2026-05-04 18:33 50.07619 19.77215 1274 ft 128 kts 260°
2026-05-04 18:33 50.07531 19.75640 1421 ft 160 kts 272°
2026-05-04 18:34 50.07756 19.73942 1857 ft 163 kts 279°
2026-05-04 18:34 50.07782 19.72242 2331 ft 157 kts 255°
2026-05-04 18:34 50.07203 19.70725 2492 ft 172 kts 232°
2026-05-04 18:34 50.06542 19.69091 2658 ft 184 kts 242°
2026-05-04 18:35 50.05898 19.67339 2812 ft 189 kts 230°
2026-05-04 18:35 50.04912 19.65964 2956 ft 193 kts 215°
2026-05-04 18:35 50.03670 19.65110 3093 ft 198 kts 198°
2026-05-04 18:35 50.02305 19.64923 3254 ft 202 kts 180°
2026-05-04 18:36 50.00932 19.65349 3492 ft 200 kts 171°
2026-05-04 18:36 49.99580 19.65553 3748 ft 192 kts 194°
2026-05-04 18:36 49.98334 19.64855 3981 ft 193 kts 205°
2026-05-04 18:36 49.97062 19.64042 4209 ft 201 kts 204°
2026-05-04 18:37 49.95729 19.63328 4449 ft 205 kts 200°
2026-05-04 18:37 49.94351 19.62681 4701 ft 208 kts 200°
2026-05-04 18:37 49.92984 19.62043 5109 ft 203 kts 200°
2026-05-04 18:37 49.91640 19.61403 5524 ft 201 kts 201°
2026-05-04 18:38 49.90308 19.60764 5942 ft 200 kts 200°
2026-05-04 18:38 49.88979 19.60126 6369 ft 199 kts 200°
2026-05-04 18:38 49.87655 19.59491 6773 ft 199 kts 201°
2026-05-04 18:38 49.86330 19.58863 7183 ft 199 kts 200°
2026-05-04 18:39 49.85048 19.58122 7608 ft 194 kts 214°
2026-05-04 18:39 49.84013 19.56793 8030 ft 193 kts 224°
2026-05-04 18:39 49.82994 19.55438 8453 ft 194 kts 220°
2026-05-04 18:39 49.81923 19.54164 8882 ft 195 kts 219°
2026-05-04 18:40 49.80838 19.52903 9314 ft 194 kts 219°
2026-05-04 18:40 49.79762 19.51645 9752 ft 194 kts 219°
2026-05-04 18:40 49.78685 19.50383 10162 ft 194 kts 219°
2026-05-04 18:40 49.77624 19.49138 10558 ft 195 kts 218°
2026-05-04 18:41 49.76546 19.47876 10979 ft 194 kts 218°
2026-05-04 18:41 49.75456 19.46603 11400 ft 194 kts 218°
2026-05-04 18:41 49.74392 19.45357 11815 ft 195 kts 218°
2026-05-04 18:41 49.73313 19.44094 12236 ft 194 kts 218°
2026-05-04 18:42 49.72236 19.42841 12668 ft 195 kts 218°
2026-05-04 18:42 49.71154 19.41575 13107 ft 195 kts 218°
2026-05-04 18:42 49.70070 19.40313 13549 ft 195 kts 218°
2026-05-04 18:42 49.68989 19.39049 13981 ft 195 kts 218°
2026-05-04 18:43 49.67908 19.37786 14382 ft 195 kts 219°
2026-05-04 18:43 49.66824 19.36524 14782 ft 195 kts 219°
2026-05-04 18:43 49.66104 19.35688 15057 ft 195 kts 219°
2026-05-04 18:43 49.65019 19.34423 15472 ft 196 kts 219°
2026-05-04 18:44 49.63928 19.33155 15891 ft 196 kts 219°
2026-05-04 18:44 49.63193 19.32298 16177 ft 196 kts 219°
2026-05-04 18:44 49.61745 19.30620 16748 ft 196 kts 219°
2026-05-04 18:44 49.60651 19.29351 17186 ft 197 kts 219°
2026-05-04 18:45 49.59559 19.28082 17631 ft 197 kts 219°
2026-05-04 18:45 49.58460 19.26809 18082 ft 198 kts 219°
2026-05-04 18:45 49.57359 19.25536 18503 ft 198 kts 220°
2026-05-04 18:45 49.56264 19.24257 18900 ft 197 kts 220°
2026-05-04 18:46 49.55163 19.22979 19304 ft 199 kts 220°
2026-05-04 18:46 49.54053 19.21707 19713 ft 199 kts 219°
2026-05-04 18:46 49.52941 19.20429 20129 ft 200 kts 220°
2026-05-04 18:46 49.51828 19.19144 20547 ft 201 kts 220°
2026-05-04 18:47 49.50709 19.17851 20973 ft 201 kts 220°
2026-05-04 18:47 49.49593 19.16550 21406 ft 201 kts 221°
2026-05-04 18:47 49.48476 19.15256 21847 ft 201 kts 221°
2026-05-04 18:47 49.47355 19.13969 22286 ft 201 kts 219°
2026-05-04 18:48 49.46229 19.12694 22739 ft 201 kts 221°
2026-05-04 18:48 49.45115 19.11400 23197 ft 200 kts 221°
2026-05-04 18:48 49.44001 19.10118 23653 ft 200 kts 222°
2026-05-04 18:48 49.42883 19.08831 23991 ft 204 kts 221°
2026-05-04 18:49 49.41717 19.07469 24016 ft 223 kts 220°
2026-05-04 18:49 49.40404 19.05970 24024 ft 240 kts 219°
2026-05-04 18:49 49.39029 19.04391 24026 ft 253 kts 219°
2026-05-04 18:49 49.37632 19.02788 24262 ft 253 kts 219°
2026-05-04 18:50 49.36228 19.01184 24568 ft 251 kts 219°
2026-05-04 18:50 49.34817 18.99567 24881 ft 249 kts 220°
2026-05-04 18:50 49.33453 18.98002 25187 ft 248 kts 219°
2026-05-04 18:50 49.32070 18.96426 25504 ft 247 kts 219°
2026-05-04 18:51 49.30692 18.94854 25820 ft 247 kts 220°
2026-05-04 18:51 49.29319 18.93281 26137 ft 246 kts 220°
2026-05-04 18:51 49.27947 18.91712 26457 ft 246 kts 220°
2026-05-04 18:51 49.26571 18.90144 26784 ft 246 kts 220°
2026-05-04 18:52 49.25239 18.88512 27122 ft 244 kts 228°
2026-05-04 18:52 49.24161 18.86531 27468 ft 242 kts 237°
2026-05-04 18:52 49.23166 18.84455 27808 ft 243 kts 237°
2026-05-04 18:52 49.22149 18.82371 28025 ft 248 kts 237°
2026-05-04 18:53 49.21098 18.80189 28027 ft 260 kts 237°
2026-05-04 18:53 49.20004 18.77924 28033 ft 269 kts 237°
2026-05-04 18:53 49.18868 18.75589 28037 ft 277 kts 236°
2026-05-04 18:53 49.17722 18.73226 28037 ft 283 kts 236°
2026-05-04 18:54 49.16526 18.70756 28025 ft 287 kts 236°
2026-05-04 18:54 49.15330 18.68290 28027 ft 291 kts 236°
2026-05-04 18:54 49.14132 18.65829 28026 ft 294 kts 236°
2026-05-04 18:54 49.12890 18.63289 28027 ft 296 kts 236°
2026-05-04 18:55 49.11659 18.60767 28024 ft 297 kts 236°
2026-05-04 18:55 49.09182 18.55676 28027 ft 299 kts 236°
2026-05-04 18:55 49.07932 18.53126 28026 ft 300 kts 236°
2026-05-04 18:56 49.05442 18.48045 28023 ft 301 kts 236°
2026-05-04 18:56 49.02926 18.42913 28020 ft 305 kts 236°
2026-05-04 18:57 49.00365 18.37696 28019 ft 309 kts 236°
2026-05-04 18:57 48.97773 18.32435 28017 ft 311 kts 236°
2026-05-04 18:58 48.95170 18.27152 28010 ft 313 kts 236°
2026-05-04 18:58 48.92549 18.21856 28008 ft 313 kts 236°
2026-05-04 18:59 48.89926 18.16560 27997 ft 313 kts 236°
2026-05-04 18:59 48.88630 18.13950 27993 ft 314 kts 236°
2026-05-04 18:59 48.87315 18.11306 27996 ft 314 kts 236°
2026-05-04 19:00 48.85999 18.08654 27995 ft 314 kts 236°
2026-05-04 19:00 48.84685 18.06006 27997 ft 314 kts 236°
2026-05-04 19:00 48.83369 18.03367 27991 ft 314 kts 235°
2026-05-04 19:00 48.82049 18.00727 27992 ft 314 kts 236°
2026-05-04 19:01 48.80733 17.98079 27989 ft 314 kts 236°
2026-05-04 19:01 48.79413 17.95441 27987 ft 314 kts 236°
2026-05-04 19:01 48.78094 17.92801 27988 ft 314 kts 235°
2026-05-04 19:01 48.76773 17.90166 27986 ft 314 kts 235°
2026-05-04 19:02 48.75453 17.87524 27985 ft 314 kts 235°
2026-05-04 19:02 48.74131 17.84893 27985 ft 314 kts 235°
2026-05-04 19:02 48.72808 17.82259 27984 ft 314 kts 235°
2026-05-04 19:02 48.71487 17.79625 27985 ft 314 kts 235°
2026-05-04 19:03 48.70175 17.77023 27983 ft 314 kts 235°
2026-05-04 19:03 48.68852 17.74388 27985 ft 314 kts 235°
2026-05-04 19:03 48.67527 17.71763 27981 ft 314 kts 235°
2026-05-04 19:03 48.66193 17.69114 27981 ft 314 kts 235°
2026-05-04 19:04 48.64869 17.66489 27981 ft 314 kts 235°
2026-05-04 19:04 48.63540 17.63866 27982 ft 314 kts 235°
2026-05-04 19:04 48.62207 17.61237 27977 ft 314 kts 235°
2026-05-04 19:04 48.60882 17.58618 27969 ft 314 kts 235°
2026-05-04 19:05 48.59554 17.55992 27970 ft 314 kts 235°
2026-05-04 19:05 48.58223 17.53369 27971 ft 314 kts 235°
2026-05-04 19:05 48.56895 17.50758 27970 ft 314 kts 235°
2026-05-04 19:05 48.55571 17.48145 27971 ft 313 kts 235°
2026-05-04 19:06 48.54242 17.45534 27969 ft 313 kts 235°
2026-05-04 19:06 48.52914 17.42928 27968 ft 313 kts 235°
2026-05-04 19:06 48.51580 17.40320 27969 ft 313 kts 235°
2026-05-04 19:06 48.50252 17.37714 27968 ft 313 kts 235°
2026-05-04 19:07 48.48927 17.35113 27968 ft 313 kts 235°
2026-05-04 19:07 48.47612 17.32543 27967 ft 313 kts 235°
2026-05-04 19:07 48.46282 17.29950 27967 ft 313 kts 235°
2026-05-04 19:07 48.44951 17.27356 27965 ft 313 kts 235°
2026-05-04 19:08 48.43621 17.24758 27969 ft 313 kts 235°
2026-05-04 19:08 48.42292 17.22161 27968 ft 313 kts 235°
2026-05-04 19:08 48.40957 17.19567 27967 ft 313 kts 234°
2026-05-04 19:08 48.39620 17.16979 27961 ft 314 kts 234°
2026-05-04 19:09 48.38283 17.14384 27961 ft 314 kts 234°
2026-05-04 19:09 48.36954 17.11785 27967 ft 314 kts 235°
2026-05-04 19:09 48.35615 17.09188 27963 ft 314 kts 234°
2026-05-04 19:09 48.34278 17.06598 27954 ft 314 kts 234°
2026-05-04 19:10 48.32940 17.03999 27959 ft 313 kts 237°
2026-05-04 19:10 48.31921 17.01139 27975 ft 310 kts 251°
2026-05-04 19:10 48.31319 16.98029 27973 ft 310 kts 258°
2026-05-04 19:10 48.30845 16.94871 27969 ft 310 kts 258°
2026-05-04 19:11 48.30315 16.91738 27961 ft 310 kts 257°
2026-05-04 19:11 48.29739 16.88615 27959 ft 310 kts 256°
2026-05-04 19:11 48.29179 16.85487 27945 ft 310 kts 257°
2026-05-04 19:11 48.28632 16.82354 27943 ft 310 kts 257°
2026-05-04 19:12 48.28088 16.79262 27936 ft 310 kts 257°
2026-05-04 19:12 48.26971 16.72999 27934 ft 311 kts 257°
2026-05-04 19:12 48.26417 16.69867 27933 ft 310 kts 257°
2026-05-04 19:13 48.25861 16.66729 27932 ft 311 kts 257°
2026-05-04 19:13 48.25298 16.63597 27932 ft 311 kts 257°
2026-05-04 19:13 48.24734 16.60464 27930 ft 311 kts 257°
2026-05-04 19:13 48.24176 16.57324 27930 ft 311 kts 257°
2026-05-04 19:14 48.23617 16.54196 27930 ft 311 kts 257°
2026-05-04 19:14 48.23051 16.51065 27931 ft 311 kts 257°
2026-05-04 19:14 48.22485 16.47935 27928 ft 311 kts 257°
2026-05-04 19:14 48.21924 16.44804 27930 ft 311 kts 257°
2026-05-04 19:15 48.21366 16.41715 27929 ft 311 kts 257°
2026-05-04 19:15 48.20794 16.38550 27929 ft 311 kts 257°
2026-05-04 19:15 48.20229 16.35430 27929 ft 310 kts 257°
2026-05-04 19:15 48.19667 16.32353 27928 ft 310 kts 256°
2026-05-04 19:16 48.19102 16.29238 27927 ft 310 kts 257°
2026-05-04 19:16 48.18537 16.26124 27924 ft 310 kts 256°
2026-05-04 19:16 48.17962 16.23006 27920 ft 310 kts 257°
2026-05-04 19:16 48.17394 16.19888 27918 ft 310 kts 257°
2026-05-04 19:17 48.16828 16.16775 27923 ft 310 kts 257°
2026-05-04 19:17 48.16635 16.15718 27922 ft 310 kts 257°
2026-05-04 19:17 48.15678 16.10550 27923 ft 310 kts 256°
2026-05-04 19:17 48.15286 16.08441 27921 ft 311 kts 256°
2026-05-04 19:18 48.14528 16.04302 27912 ft 312 kts 256°
2026-05-04 19:18 48.13953 16.01173 27912 ft 312 kts 256°